Flag for U.S.A. Weather past 2 weeks in New Orleans, Louisiana, U.S.A.

Now
84 °F

Sunny.


Feels Like: 94 °F
Forecast: 77 / 91 °F
Wind: No wind

Location: Lakefront Airport

Current Time: Aug 21, 2014 at 9:10:12 AM

Latest Report: Aug 21, 2014 at 7:53 AM


Visibility: 10 mi

Pressure: 30.11 "Hg

Humidity: 80%

Dew point: 77 °F

Location of New OrleansLocation

Historic Weather in New Orleans — Graph

°F

New Orleans temperature yesterday

Maximum temperature yesterday: 90 °F (at 11:53 AM)
Minimum temperature yesterday: 78 °F (at 2:04 PM)
Average temperature yesterday: 83 °F

Past Weeks' High & Low Weather Summary

 TemperatureHumidityPressure
High93 °F (Aug 6, 3:53 PM)90% (Aug 10, 2:53 AM)30.11 "Hg (Aug 10, 2:53 AM)
Low77 °F (Aug 10, 2:53 AM)39% (Aug 14, 5:53 PM)29.87 "Hg (Aug 12, 6:53 PM)
Average84 °F72%29.99 "Hg
* Reported Aug 6 7:53 AM — Aug 21 7:53 AM, New Orleans, Weather by CustomWeather, © 2014

Note: Actual official high and low records may vary slightly from our data, if they occured in-between our weather recording intervals... More about our weather records

Advertising

New Orleans weather history for previous 24 hours

 ConditionsComfort  
Time TempWeatherWind HumidityBarometerVisibility
7:53 AM
Aug 21
84 °FSunny.No wind80%30.11 "Hg10 mi
6:53 AM79 °FClear.No wind90%30.10 "Hg10 mi
5:53 AM79 °FClear.3 mph90%30.09 "Hg10 mi
4:53 AM79 °FClear.3 mph88%30.08 "Hg10 mi
3:53 AM79 °FClear.3 mph88%30.06 "Hg10 mi
2:53 AM79 °FClear.5 mph84%30.06 "Hg10 mi
1:53 AM79 °FClear.5 mph82%30.06 "Hg10 mi
12:53 AM80 °FClear.3 mph76%30.06 "Hg10 mi
11:53 PM
Aug 20
81 °FClear.5 mph74%30.07 "Hg10 mi
10:53 PM82 °FClear.5 mph74%30.07 "Hg10 mi
9:53 PM84 °FClear.3 mph67%30.07 "Hg10 mi
8:53 PM82 °FClear.6 mph79%30.06 "Hg10 mi
7:53 PM84 °FSunny.6 mph74%30.04 "Hg10 mi
6:53 PM85 °FSunny.8 mph70%30.03 "Hg10 mi
5:53 PM86 °FSunny.7 mph63%30.03 "Hg10 mi
4:53 PM86 °FSunny.7 mph65%30.03 "Hg10 mi
3:53 PM83 °FSunny.10 mph72%30.03 "Hg10 mi
2:53 PM82 °FSunny.9 mph74%30.04 "Hg4 mi
2:04 PM78 °FRain. Fog.9 mph87%30.08 "Hg4 mi
1:56 PM79 °FHeavy rain. Broken clouds.15 mph82%30.09 "Hg2 mi
12:53 PM90 °FSunny.12 mph61%30.06 "Hg10 mi
11:53 AM90 °FSunny.8 mph66%30.07 "Hg10 mi
10:53 AMN/AScattered clouds.7 mphN/A30.07 "Hg10 mi
9:53 AMN/ASunny.6 mphN/A30.06 "HgN/A
Weather by CustomWeather, © 2014

See weather overviewHow to use our weather pages